[[[{"header":{"parameterUnit":"kt","parameterCategory":2,"dx":1,"dy":1,"la1":30.253999710083008,"la2":30.299108505249023,"lo1":-89.0895004272461,"lo2":-89.04439544677734,"nx":28,"ny":28,"refTime":"2022-09-21T21:00:00:Z","depth":0,"parameterNumber":1,"parameterNumberName":"U-component_of_WINDS"},"data":[0.6848,0.6968,0.6973,0.7112,0.714,0.7237,0.7273,0.7321,0.736,0.7477,0.7545,0.7564,0.7607,0.7691,0.7766,0.7773,0.7805,0.7842,0.7844,0.7669,0.7645,0.7622,0.7593,0.7849,0.7849,0.8025,0.8026,0.8028,0.6715,0.6744,0.6819,0.6896,0.696,0.6926,0.6985,0.7042,0.713,0.718,0.7248,0.7352,0.7436,0.7467,0.7549,0.7606,0.7596,0.7628,0.7624,0.7631,0.7444,0.7413,0.7635,0.7635,0.7635,0.7635,0.7635,0.7635,0.6475,0.6547,0.6596,0.6678,0.6718,0.677,0.684,0.6861,0.6936,0.7021,0.7014,0.7115,0.7167,0.727,0.7307,0.7386,0.7352,0.739,0.7399,0.7409,0.7418,0.7162,0.7401,0.74,0.7399,0.7399,0.7398,0,0.63,0.6299,0.6372,0.6447,0.6508,0.6567,0.6622,0.6666,0.6668,0.6731,0.6822,0.6876,0.6982,0.707,0.7149,0.718,0.7153,0.7152,0.7178,0.7182,0.7175,0.718,0.6873,0.7145,0.7143,0.7142,0.7141,0.714,0.6058,0.6142,0.6196,0.6247,0.6279,0.6362,0.6412,0.6408,0.6462,0.6531,0.6596,0.6683,0.6753,0.69,0.6927,0.7008,0.6996,0.7099,0.7008,0.7008,0.6997,0.6992,0.7,0.7117,0.712,0.7122,0.7124,0,0.5921,0.5929,0.6061,0.6108,0.6122,0.6211,0.6251,0.6325,0.6337,0.6441,0.6464,0.6486,0.6577,0.6587,0.6694,0.6696,0.6845,0.6831,0.6825,0.6823,0.6916,0.6907,0.7217,0.7257,0.6992,0.6994,0.6996,0,0.5717,0.5829,0.5834,0.5911,0.6035,0.6027,0.615,0.6173,0.6219,0.63,0.627,0.6347,0.6347,0.6427,0.6431,0.6554,0.6574,0.6583,0.6583,0.6586,0.6585,0.6617,0.6605,0.658,0.6579,0.6577,0.6576,0,0.5502,0.5636,0.5761,0.5793,0.5855,0.5914,0.5943,0.5994,0.6045,0.6112,0.6145,0.6225,0.627,0.6332,0.6337,0.6275,0.6488,0.6404,0.6497,0.6497,0.6545,0.6542,0.6813,0.6574,0.6574,0.6573,0.6572,0,0.5339,0.5405,0.5585,0.5635,0.5671,0.5755,0.5831,0.5904,0.5961,0.5968,0.6022,0.6004,0.6112,0.6028,0.6177,0.6095,0.6141,0.616,0.6167,0.6178,0.6083,0.6235,0.6491,0.6518,0.6186,0.6183,0.618,0,0.509,0.5274,0.5268,0.544,0.5526,0.5485,0.5578,0.5628,0.5646,0.5722,0.5742,0.5831,0.577,0.5799,0.5872,0.5897,0.6004,0.5883,0.5996,0.6,0.5981,0.6217,0.6253,0.6434,0.6139,0.6144,0.6147,0,0.4898,0.4972,0.5003,0.5039,0.5104,0.5177,0.5283,0.5369,0.5419,0.5481,0.557,0.5696,0.5655,0.5705,0.57,0.5775,0.5931,0.5722,0.5723,0.5759,0.612,0.6153,0.6183,0.5911,0.5916,0.592,0.6114,0,0.465,0.4743,0.4828,0.491,0.4967,0.5076,0.5085,0.5144,0.5132,0.5148,0.5281,0.5328,0.5418,0.5455,0.5446,0.5615,0.5589,0.5545,0.5465,0.5619,0.5684,0.571,0.5368,0.5365,0.5363,0.5362,0,0,0.441,0.4544,0.4535,0.4637,0.4686,0.4642,0.4758,0.48,0.4888,0.4923,0.4878,0.5062,0.5104,0.5265,0.5313,0.5351,0.5382,0.5329,0.5546,0.5566,0.5585,0.5654,0.5681,0.5358,0.5358,0.5357,0.5356,0,0.4321,0.4359,0.4473,0.4515,0.4578,0.4589,0.4616,0.4673,0.4689,0.4819,0.4784,0.4865,0.5015,0.5062,0.5106,0.5308,0.5279,0.5335,0.544,0.5526,0.5549,0.5569,0.5641,0.5667,0.5352,0.5352,0.5352,0,0.4134,0.4173,0.4229,0.4335,0.4377,0.4468,0.4384,0.4485,0.4553,0.4504,0.4635,0.4663,0.4729,0.488,0.4948,0.491,0.5185,0.5101,0.5113,0.5122,0.5206,0.5233,0.5258,0.4934,0.4932,0.4931,0,0,0.4056,0.4142,0.4185,0.4317,0.4345,0.4364,0.4414,0.4407,0.4465,0.4488,0.4524,0.4583,0.467,0.4727,0.4809,0.4974,0.4988,0.5049,0.5068,0.5084,0.5102,0.519,0.5217,0.4925,0.4925,0.4925,0,0,0.402,0.4072,0.4049,0.4203,0.4258,0.4311,0.4392,0.4366,0.444,0.4429,0.4425,0.4441,0.4582,0.4613,0.4534,0.4781,0.4702,0.4721,0.4757,0.4782,0.4801,0.4792,0.4458,0,0,0,0,0,0.3933,0.4065,0.4043,0.4071,0.4207,0.4322,0.434,0.4338,0.428,0.4344,0.437,0.4335,0.4569,0.45,0.4528,0.4616,0.4851,0.4864,0.4877,0.4962,0.4988,0.501,0,0,0,0,0,0,0.3944,0.3977,0.404,0.4098,0.4128,0.4317,0.4219,0.4222,0.4273,0.4264,0.4331,0.4337,0.434,0.4485,0.4511,0.4594,0.445,0.4856,0.4868,0.4878,0.4971,0.4992,0.501,0,0,0,0,0,0.3952,0.3979,0.4198,0.4096,0.4123,0.4151,0.4214,0.4216,0.4256,0.4296,0.4301,0.4249,0.4342,0.4364,0.45,0.4583,0.4432,0.4441,0.4864,0.4872,0.488,0.4981,0,0,0,0,0,0,0.3958,0.3982,0.4203,0.4212,0.4045,0.414,0.4155,0.4211,0.4284,0.4291,0.4214,0.4206,0.4345,0.4362,0.4378,0.4579,0.4417,0.4427,0.4433,0.487,0.4877,0.4883,0,0,0,0,0,0,0.3968,0.3989,0.4208,0.4144,0.4145,0.4131,0.4144,0.4261,0.4286,0.4198,0.4193,0.4209,0.4321,0.4361,0.4374,0.4556,0.4406,0.4416,0.4422,0.4426,0.4876,0.4881,0,0,0,0,0,0,0.3977,0.3995,0.4142,0.4143,0.4143,0.4235,0.4234,0.4375,0.4229,0.4195,0.4216,0.421,0.4322,0.4334,0.4371,0.4548,0.4554,0.4407,0.4413,0.4417,0.442,0,0,0,0,0,0,0,0.3984,0.386,0.4155,0.4142,0.4142,0.4287,0.4289,0.4291,0.4227,0.4222,0.4217,0.4212,0.4353,0.4363,0.4374,0.4541,0,0,0.4406,0.441,0,0,0,0,0,0,0,0,0.3852,0.3858,0.4155,0.4157,0.4159,0.4287,0.4289,0.4291,0.4227,0.4222,0.4218,0.4214,0.4356,0.4364,0.4373,0,0,0,0,0,0,0,0,0,0,0,0,0,0,0,0.4155,0.4157,0,0.4287,0.4289,0.429,0.4226,0.4222,0.4219,0.4216,0.4358,0.4365,0.4372,0,0,0,0,0,0,0,0,0,0,0,0,0,0,0,0,0,0,0,0,0,0,0,0,0,0,0,0,0,0,0,0,0,0,0,0,0,0,0,0,0,0,0,0,0,0,0,0,0,0,0,0,0,0,0,0,0,0,0,0,0,0,0,0,0,0,0,0,0]}],[{"header":{"parameterUnit":"kt","parameterCategory":2,"dx":1,"dy":1,"la1":30.253999710083008,"la2":30.299108505249023,"lo1":-89.0895004272461,"lo2":-89.04439544677734,"nx":28,"ny":28,"refTime":"2022-09-21T21:00:00:Z","depth":0,"parameterNumber":2,"parameterNumberName":"V-component_of_WINDS"},"data":[1.8925,1.9036,1.9042,1.9171,1.9199,1.9287,1.9321,1.9366,1.9404,1.951,1.9572,1.9592,1.9633,1.9709,1.9776,1.9784,1.9808,1.9841,1.9842,1.9695,1.9674,1.9655,1.9626,1.9848,1.9848,1.999,1.9992,1.9993,1.8807,1.8835,1.8908,1.8982,1.9042,1.9015,1.9072,1.9124,1.9205,1.9254,1.9317,1.9413,1.9489,1.9521,1.9595,1.9645,1.9635,1.9664,1.9657,1.9662,1.9507,1.9476,1.967,1.967,1.967,1.967,1.967,1.967,1.8592,1.866,1.8708,1.8787,1.8827,1.8877,1.8943,1.8965,1.9036,1.9117,1.9115,1.9207,1.9257,1.9354,1.9389,1.946,1.9429,1.9463,1.947,1.9476,1.9479,1.9258,1.9475,1.9474,1.9474,1.9473,1.9473,0,1.8435,1.8435,1.8507,1.8579,1.8638,1.8696,1.8751,1.8793,1.88,1.886,1.8946,1.8996,1.9098,1.9178,1.9252,1.9282,1.9257,1.926,1.9281,1.9277,1.9263,1.9263,1.9001,1.9252,1.925,1.9249,1.9248,1.9247,1.821,1.8293,1.835,1.8399,1.8431,1.8512,1.8561,1.8562,1.8615,1.8683,1.8744,1.8827,1.8892,1.9031,1.9057,1.9133,1.9121,1.9214,1.9132,1.9126,1.9112,1.9103,1.9108,1.9228,1.923,1.9232,1.9234,0,1.8081,1.8095,1.8225,1.8276,1.8291,1.8376,1.8418,1.8488,1.8504,1.8602,1.8625,1.865,1.8736,1.8748,1.8851,1.8854,1.8987,1.8979,1.8967,1.8962,1.9041,1.903,1.9311,1.9344,1.9123,1.9125,1.9127,0,1.7892,1.8001,1.8013,1.8089,1.8209,1.8207,1.8326,1.8351,1.8397,1.8475,1.8452,1.8525,1.853,1.8605,1.8611,1.8724,1.8746,1.8752,1.875,1.8749,1.8747,1.8772,1.8757,1.8756,1.8755,1.8753,1.8752,0,1.7682,1.7822,1.7945,1.7978,1.8045,1.8103,1.8133,1.8186,1.8236,1.8303,1.8334,1.8415,1.8457,1.8519,1.8523,1.8466,1.8666,1.8589,1.8671,1.867,1.8709,1.8705,1.8957,1.875,1.875,1.875,1.8749,0,1.7528,1.7597,1.7778,1.7829,1.7866,1.795,1.8026,1.8101,1.8159,1.8167,1.8221,1.8206,1.8313,1.8233,1.8377,1.8299,1.8342,1.836,1.8366,1.8369,1.8278,1.8407,1.8653,1.8675,1.838,1.8377,1.8374,0,1.7279,1.7467,1.7466,1.764,1.7726,1.769,1.7783,1.7836,1.7856,1.7931,1.7953,1.8042,1.7987,1.8015,1.8087,1.8111,1.8213,1.81,1.8201,1.8205,1.8177,1.8406,1.8434,1.8599,1.8336,1.834,1.8342,0,1.7087,1.7169,1.72,1.7236,1.7308,1.7383,1.7493,1.758,1.7629,1.7697,1.7783,1.7915,1.7874,1.7925,1.7922,1.7995,1.8144,1.7943,1.7944,1.7971,1.8321,1.8346,1.8374,1.8126,1.813,1.8134,1.8312,0,1.6835,1.6934,1.7023,1.7109,1.7171,1.7284,1.7297,1.7359,1.7348,1.7365,1.75,1.7552,1.7643,1.7683,1.7675,1.7841,1.7814,1.7772,1.769,1.7844,1.7901,1.7926,1.7602,1.76,1.7598,1.7596,0,0,1.6588,1.673,1.6729,1.6835,1.6885,1.6847,1.6965,1.7011,1.7106,1.714,1.7096,1.7286,1.7331,1.7492,1.7542,1.7583,1.7611,1.7559,1.7773,1.7792,1.7811,1.7873,1.7898,1.7593,1.7592,1.7592,1.7591,0,1.6496,1.6545,1.6663,1.671,1.6779,1.6793,1.6822,1.6884,1.6901,1.7037,1.7002,1.7085,1.7243,1.729,1.7335,1.7541,1.7508,1.757,1.7672,1.7753,1.7776,1.7795,1.786,1.7885,1.7586,1.7587,1.7587,0,1.6303,1.6348,1.6409,1.6527,1.6573,1.6668,1.6585,1.6692,1.6761,1.6716,1.685,1.6881,1.695,1.7105,1.7176,1.7137,1.7413,1.7333,1.7346,1.7352,1.7431,1.7458,1.7482,1.7166,1.7165,1.7163,0,0,1.6221,1.6316,1.6366,1.6509,1.654,1.6563,1.6617,1.6611,1.6674,1.6699,1.6738,1.68,1.6889,1.6949,1.7035,1.7206,1.7216,1.7281,1.73,1.7317,1.7331,1.7415,1.7442,1.7158,1.7158,1.7157,0,0,1.6183,1.6245,1.6223,1.6391,1.6451,1.651,1.6596,1.657,1.6649,1.6637,1.6635,1.6652,1.6798,1.6831,1.6751,1.7004,1.6924,1.6944,1.6976,1.7002,1.7021,1.7007,1.6672,0,0,0,0,0,1.6095,1.6237,1.6216,1.6246,1.6399,1.6522,1.6541,1.6541,1.6481,1.6549,1.6577,1.6541,1.6786,1.6715,1.6745,1.6833,1.7082,1.7096,1.7108,1.719,1.7216,1.7238,0,0,0,0,0,0,1.6107,1.6144,1.6212,1.6278,1.6312,1.6516,1.6415,1.6419,1.6474,1.6465,1.6537,1.6543,1.6546,1.6699,1.6727,1.681,1.6663,1.7087,1.7099,1.7109,1.7199,1.7221,1.7239,0,0,0,0,0,1.6116,1.6146,1.639,1.6276,1.6306,1.6339,1.641,1.6412,1.6455,1.65,1.6505,1.645,1.6549,1.6572,1.6715,1.6797,1.6644,1.6654,1.7095,1.7104,1.7112,1.721,0,0,0,0,0,0,1.6123,1.6149,1.6396,1.6405,1.6222,1.6328,1.6344,1.6406,1.6486,1.6493,1.6412,1.6404,1.6553,1.657,1.6588,1.6793,1.6629,1.6639,1.6646,1.7102,1.7109,1.7115,0,0,0,0,0,0,1.6133,1.6157,1.64,1.6333,1.6334,1.6317,1.6332,1.6456,1.6488,1.6394,1.6389,1.6407,1.6526,1.6569,1.6583,1.6776,1.6617,1.6627,1.6634,1.6638,1.7107,1.7113,0,0,0,0,0,0,1.6143,1.6164,1.633,1.6332,1.6332,1.6433,1.6426,1.6583,1.6429,1.6391,1.6415,1.6409,1.6526,1.654,1.6579,1.6767,1.6774,1.6617,1.6624,1.6629,1.6632,0,0,0,0,0,0,0,1.6151,1.6014,1.6342,1.633,1.6331,1.6488,1.649,1.6493,1.6427,1.6422,1.6416,1.6411,1.6561,1.6572,1.6583,1.676,0,0,1.6617,1.6621,0,0,0,0,0,0,0,0,1.6005,1.6011,1.6343,1.6345,1.6346,1.6488,1.649,1.6492,1.6426,1.6422,1.6418,1.6413,1.6564,1.6572,1.6581,0,0,0,0,0,0,0,0,0,0,0,0,0,0,0,1.6343,1.6344,0,1.6489,1.649,1.6492,1.6426,1.6422,1.6418,1.6415,1.6566,1.6573,1.6581,0,0,0,0,0,0,0,0,0,0,0,0,0,0,0,0,0,0,0,0,0,0,0,0,0,0,0,0,0,0,0,0,0,0,0,0,0,0,0,0,0,0,0,0,0,0,0,0,0,0,0,0,0,0,0,0,0,0,0,0,0,0,0,0,0,0,0,0,0]}]]]